Weather History for KJMR - September, 2012

Change the Weather History Date:

Monday, September 10, 2012

  Actual Average Record
Temperature  
Mean Temperature 60 °F -  
Max Temperature 78 °F 73 °F 90 °F (1978)
Min Temperature 42 °F 46 °F 31 °F (1976)
Degree Days  
Heating Degree Days 5    
Growing Degree Days 10 (Base 50)    
Moisture  
Dew Point 44 °F    
Average Humidity 59    
Maximum Humidity 100    
Minimum Humidity 28    
Precipitation  
Precipitation 0.00 in - - ()
Sea Level Pressure  
Sea Level Pressure 29.95 in    
Wind  
Wind Speed 6 mph (South)    
Max Wind Speed 21 mph    
Max Gust Speed 29 mph    
Visibility 10 miles    
Events      
Averages and records for this station are not official NWS values.
T = Trace of Precipitation, MM = Missing Value Source: NWS Daily Summary

Daily Weather History Graph

Daily Weather History Graph

Search for Another Location

Airport or City:

Trip Planner

Search our weather history database for the weather conditions in past years. The results will help you decide how hot, cold, wet, or windy it might be!

Date:

Astronomy

Sep. 10, 2012 Rise Set
Actual Time 6:45 AM CDT 7:33 PM CDT
Civil Twilight 6:15 AM CDT 8:03 PM CDT
Nautical Twilight 5:39 AM CDT 8:39 PM CDT
Astronomical Twilight 5:01 AM CDT 9:16 PM CDT
Moon 12:53 AM CDT (9/10) 4:15 PM CDT (9/10)
Length of Visible Light 13h 47m
Length of Day
12h 47m
Waning Crescent, 30% of the Moon is Illuminated
Sep 10
Waning Crescent
Sep 15
New
Sep 22
First Quarter
Sep 29
Full
Oct 8
Last Quarter

Hourly Weather History & Observations

Time (CDT) Temp. Windchill Dew Point Humidity Pressure Visibility Wind Dir Wind Speed Gust Speed Precip Events Conditions
12:19 AM 44.6 °F - 42.8 °F 93% 30.10 in 10.0 mi Calm Calm - N/A   Clear
12:39 AM 44.6 °F - 42.8 °F 93% 30.10 in 10.0 mi Calm Calm - N/A   Clear
12:59 AM 44.6 °F - 42.8 °F 93% 30.09 in 5.0 mi Calm Calm - N/A   Clear
1:19 AM 44.6 °F - 44.6 °F 100% 30.09 in 10.0 mi Calm Calm - N/A   Clear
1:39 AM 44.6 °F - 44.6 °F 100% 30.09 in 10.0 mi Calm Calm - N/A   Clear
1:58 AM 44.6 °F - 44.6 °F 100% 30.08 in 10.0 mi Calm Calm - N/A   Clear
2:19 AM 44.6 °F - 44.6 °F 100% 30.09 in 7.0 mi Calm Calm - N/A   Clear
2:39 AM 44.6 °F - 44.6 °F 100% 30.08 in 5.0 mi Calm Calm - N/A   Clear
2:59 AM 42.8 °F - 41.0 °F 93% 30.08 in 10.0 mi Calm Calm - N/A   Clear
3:19 AM 42.8 °F - 42.8 °F 100% 30.08 in 10.0 mi Calm Calm - N/A   Clear
3:39 AM 42.8 °F - 41.0 °F 93% 30.08 in 10.0 mi Calm Calm - N/A   Clear
3:59 AM 42.8 °F - 41.0 °F 93% 30.07 in 10.0 mi Calm Calm - N/A   Clear
4:19 AM 42.8 °F - 41.0 °F 93% 30.07 in 10.0 mi Calm Calm - N/A   Clear
4:39 AM 42.8 °F - 41.0 °F 93% 30.06 in 10.0 mi Calm Calm - N/A   Clear
4:59 AM 42.8 °F - 41.0 °F 93% 30.06 in 7.0 mi Calm Calm - N/A   Clear
5:19 AM 42.8 °F - 41.0 °F 93% 30.05 in 10.0 mi Calm Calm - N/A   Clear
5:39 AM 42.8 °F - 41.0 °F 93% 30.05 in 10.0 mi Calm Calm - N/A   Clear
5:59 AM 44.6 °F 43.1 °F 44.6 °F 100% 30.04 in 10.0 mi SSE 3.5 mph - N/A   Clear
6:19 AM 46.4 °F 45.2 °F 46.4 °F 100% 30.04 in 10.0 mi SSE 3.5 mph - N/A   Clear
6:39 AM 46.4 °F - 46.4 °F 100% 30.04 in 10.0 mi Calm Calm - N/A   Clear
6:58 AM 46.4 °F - 46.4 °F 100% 30.04 in 10.0 mi Calm Calm - N/A   Clear
7:19 AM 50.0 °F - 46.4 °F 87% 30.04 in 10.0 mi SSE 3.5 mph - N/A   Clear
7:38 AM 50.0 °F - 46.4 °F 87% 30.04 in 10.0 mi South 4.6 mph - N/A   Clear
7:59 AM 53.6 °F - 46.4 °F 77% 30.03 in 10.0 mi South 5.8 mph - N/A   Clear
8:19 AM 55.4 °F - 46.4 °F 72% 30.03 in 10.0 mi South 6.9 mph - N/A   Clear
8:39 AM 55.4 °F - 46.4 °F 72% 30.03 in 10.0 mi South 9.2 mph - N/A   Clear
8:59 AM 59.0 °F - 46.4 °F 63% 30.03 in 10.0 mi SSW 9.2 mph - N/A   Clear
9:19 AM 60.8 °F - 46.4 °F 59% 30.02 in 10.0 mi SSW 9.2 mph - N/A   Clear
9:39 AM 62.6 °F - 48.2 °F 59% 30.02 in 10.0 mi South 9.2 mph 16.1 mph N/A   Clear
9:59 AM 64.4 °F - 48.2 °F 56% 30.02 in 10.0 mi SSW 15.0 mph 18.4 mph N/A   Clear
10:19 AM 64.4 °F - 46.4 °F 52% 30.01 in 10.0 mi SSW 16.1 mph 20.7 mph N/A   Clear
10:39 AM 68.0 °F - 46.4 °F 46% 30.00 in 10.0 mi SSW 12.7 mph 19.6 mph N/A   Clear
10:59 AM 69.8 °F - 50.0 °F 49% 30.00 in 10.0 mi South 16.1 mph 20.7 mph N/A   Clear
11:19 AM 69.8 °F - 48.2 °F 46% 29.99 in 10.0 mi SSW 13.8 mph 18.4 mph N/A   Clear
11:39 AM 71.6 °F - 46.4 °F 41% 29.98 in 10.0 mi SSW 15.0 mph 21.9 mph N/A   Clear
11:59 AM 73.4 °F - 44.6 °F 36% 29.97 in 10.0 mi South 19.6 mph 24.2 mph N/A   Clear
12:19 PM 73.4 °F - 44.6 °F 36% 29.97 in 10.0 mi South 20.7 mph 27.6 mph N/A   Clear
12:38 PM 73.4 °F - 44.6 °F 36% 29.95 in 10.0 mi SSW 19.6 mph 23.0 mph N/A   Clear
12:59 PM 73.4 °F - 44.6 °F 36% 29.94 in 10.0 mi South 20.7 mph 24.2 mph N/A   Clear
1:19 PM 75.2 °F - 44.6 °F 34% 29.94 in 10.0 mi South 16.1 mph 23.0 mph N/A   Clear
1:39 PM 75.2 °F - 44.6 °F 34% 29.93 in 10.0 mi South 19.6 mph 28.8 mph N/A   Clear
1:59 PM 75.2 °F - 42.8 °F 31% 29.92 in 10.0 mi South 18.4 mph 28.8 mph N/A   Clear
2:19 PM 77.0 °F - 42.8 °F 29% 29.90 in 10.0 mi South 19.6 mph 24.2 mph N/A   Clear
2:39 PM 77.0 °F - 42.8 °F 29% 29.89 in 10.0 mi South 17.3 mph 26.5 mph N/A   Clear
2:59 PM 77.0 °F - 42.8 °F 29% 29.88 in 10.0 mi South 18.4 mph 28.8 mph N/A   Clear
3:19 PM 78.8 °F - 42.8 °F 28% 29.87 in 10.0 mi South 16.1 mph 27.6 mph N/A   Clear
3:39 PM 78.8 °F - 42.8 °F 28% 29.86 in 10.0 mi South 17.3 mph 28.8 mph N/A   Clear
3:58 PM 78.8 °F - 42.8 °F 28% 29.86 in 10.0 mi South 15.0 mph 24.2 mph N/A   Clear
4:19 PM 78.8 °F - 42.8 °F 28% 29.85 in 10.0 mi South 19.6 mph 28.8 mph N/A   Clear
4:38 PM 78.8 °F - 42.8 °F 28% 29.85 in 10.0 mi South 18.4 mph 25.3 mph N/A   Clear
4:59 PM 78.8 °F - 42.8 °F 28% 29.85 in 10.0 mi South 13.8 mph 25.3 mph N/A   Clear
5:19 PM 78.8 °F - 42.8 °F 28% 29.84 in 10.0 mi South 19.6 mph 27.6 mph N/A   Clear
5:39 PM 78.8 °F - 42.8 °F 28% 29.83 in 10.0 mi South 13.8 mph 24.2 mph N/A   Clear
5:59 PM 77.0 °F - 42.8 °F 29% 29.82 in 10.0 mi South 13.8 mph 20.7 mph N/A   Clear
6:19 PM 77.0 °F - 42.8 °F 29% 29.81 in 10.0 mi South 15.0 mph 19.6 mph N/A   Clear
6:39 PM 77.0 °F - 42.8 °F 29% 29.81 in 10.0 mi South 12.7 mph 19.6 mph N/A   Clear
6:59 PM 75.2 °F - 44.6 °F 34% 29.81 in 10.0 mi South 11.5 mph 16.1 mph N/A   Clear
7:19 PM 75.2 °F - 44.6 °F 34% 29.81 in 10.0 mi South 10.4 mph 16.1 mph N/A   Clear
7:39 PM 73.4 °F - 42.8 °F 33% 29.81 in 10.0 mi South 9.2 mph 16.1 mph N/A   Clear
7:59 PM 71.6 °F - 44.6 °F 38% 29.82 in 10.0 mi South 6.9 mph - N/A   Clear
8:19 PM 69.8 °F - 44.6 °F 40% 29.82 in 10.0 mi South 8.1 mph - N/A   Clear
8:39 PM 69.8 °F - 44.6 °F 40% 29.82 in 10.0 mi SSE 4.6 mph - N/A   Clear
8:59 PM 68.0 °F - 44.6 °F 43% 29.82 in 10.0 mi SSE 4.6 mph - N/A   Clear
9:19 PM 68.0 °F - 44.6 °F 43% 29.83 in 10.0 mi SSE 5.8 mph - N/A   Clear
9:39 PM 68.0 °F - 46.4 °F 46% 29.82 in 10.0 mi SSE 6.9 mph - N/A   Clear
9:59 PM 68.0 °F - 46.4 °F 46% 29.82 in 10.0 mi South 6.9 mph - N/A   Clear
10:19 PM 68.0 °F - 46.4 °F 46% 29.82 in 10.0 mi SSE 8.1 mph - N/A   Clear
10:39 PM 68.0 °F - 46.4 °F 46% 29.82 in 10.0 mi South 6.9 mph - N/A   Clear
10:59 PM 64.4 °F - 44.6 °F 49% 29.82 in 10.0 mi SSE 5.8 mph - N/A   Clear
11:19 PM 64.4 °F - 44.6 °F 49% 29.82 in 10.0 mi SSE 5.8 mph - N/A   Clear
11:39 PM 64.4 °F - 46.4 °F 52% 29.82 in 10.0 mi SSE 4.6 mph - N/A   Clear
11:59 PM 64.4 °F - 46.4 °F 52% 29.82 in 10.0 mi SSE 4.6 mph - N/A   Clear